[[{"header":{"parameterUnit":"m.s-1","parameterCategory":1,"la1":30.2991,"la2":30.254,"lo1":-89.0895,"lo2":-89.0444,"dy":0.0017,"dx":0.0017,"nx":28,"ny":28,"refTime":"2025-04-30T03:00:00:Z","depth":0,"parameterNumber":2,"parameterNumberName":"U-component_of_WINDS"},"data":[0,0,0,0,0,0,0,0,0,0,0,0,0,0,0,0,0,0,0,0,0,0,0,0,0,0,0,0,0,0,0,0,0,0,0,0,0,0,0,0,0,0,0,0,0,0,0,0,0,0,0,0,0,0,0,0,0,0,-2.8769,-2.877,0,-2.8886,-2.8888,-2.8889,-2.8886,-2.8884,-2.8882,-2.8881,-2.9001,-2.9006,-2.9011,0,0,0,0,0,0,0,0,0,0,0,0,0,-2.8542,-2.8547,-2.8769,-2.877,-2.8772,-2.8886,-2.8888,-2.8889,-2.8886,-2.8884,-2.8882,-2.888,-2.9,-2.9005,-2.9011,0,0,0,0,0,0,0,0,0,0,0,0,0,-2.8648,-2.8548,-2.8769,-2.8784,-2.8787,-2.8886,-2.8888,-2.889,-2.8886,-2.8884,-2.8882,-2.8879,-2.8998,-2.9005,-2.9012,-2.9104,0,0,-2.9033,-2.9037,0,0,0,0,0,0,0,0,-2.8642,-2.8657,-2.878,-2.8783,-2.8786,-2.8869,-2.8852,-2.8962,-2.8887,-2.8849,-2.8881,-2.8878,-2.8959,-2.8969,-2.8997,-2.9109,-2.9115,-2.9034,-2.9038,-2.9041,-2.9043,0,0,0,0,0,0,0,-2.8635,-2.8652,-2.8815,-2.8782,-2.8786,-2.8785,-2.8798,-2.8873,-2.8916,-2.8852,-2.8852,-2.8866,-2.896,-2.899,-2.9,-2.9116,-2.9034,-2.904,-2.9045,-2.9047,-2.931,-2.9313,0,0,0,0,0,0,-2.8624,-2.8646,-2.8812,-2.8819,-2.8707,-2.8791,-2.8805,-2.8845,-2.8915,-2.8924,-2.8868,-2.8865,-2.8979,-2.8991,-2.9004,-2.9115,-2.9041,-2.9048,-2.9052,-2.9307,-2.9311,-2.9314,0,0,0,0,0,0,-2.862,-2.8639,-2.8807,-2.8732,-2.8754,-2.8798,-2.8842,-2.8848,-2.8878,-2.8927,-2.8935,-2.889,-2.8978,-2.8994,-2.9079,-2.912,-2.9051,-2.9058,-2.9304,-2.9308,-2.9312,-2.934,0,0,0,0,0,0,-2.8613,-2.8638,-2.8673,-2.8733,-2.8758,-2.888,-2.8845,-2.8852,-2.889,-2.8888,-2.895,-2.8958,-2.8977,-2.9068,-2.9086,-2.9128,-2.9063,-2.9301,-2.9306,-2.9311,-2.9335,-2.9344,-2.9352,0,0,0,0,0,-2.8605,-2.8676,-2.8675,-2.8695,-2.8803,-2.8882,-2.8896,-2.8917,-2.8893,-2.8929,-2.8961,-2.8956,-2.9113,-2.9077,-2.9097,-2.9142,-2.9298,-2.9304,-2.931,-2.9332,-2.9342,-2.9352,0,0,0,0,0,0,-2.862,-2.8684,-2.8683,-2.8776,-2.8824,-2.8882,-2.8927,-2.8928,-2.8983,-2.8979,-2.9002,-2.9016,-2.9101,-2.913,-2.9089,-2.9234,-2.9202,-2.9213,-2.9212,-2.9222,-2.9231,-2.9221,-2.9069,0,0,0,0,0,-2.8634,-2.8693,-2.8746,-2.8823,-2.8847,-2.8883,-2.8919,-2.893,-2.898,-2.9001,-2.9039,-2.9088,-2.9148,-2.9187,-2.9245,-2.934,-2.9353,-2.9381,-2.9389,-2.9395,-2.9404,-2.9455,-2.9468,-2.9334,-2.9334,-2.9334,0,0,-2.8663,-2.8706,-2.8742,-2.8827,-2.8865,-2.8926,-2.89,-2.8966,-2.9011,-2.9011,-2.9093,-2.9123,-2.9179,-2.9269,-2.9311,-2.9296,-2.9444,-2.9403,-2.9408,-2.9413,-2.9463,-2.9476,-2.9487,-2.9338,-2.9337,-2.9337,0,0,-2.8748,-2.8786,-2.8854,-2.8893,-2.8951,-2.8975,-2.8991,-2.9049,-2.9069,-2.9152,-2.9153,-2.9207,-2.931,-2.935,-2.9384,-2.9484,-2.9481,-2.9503,-2.9545,-2.9595,-2.9606,-2.9615,-2.965,-2.9662,-2.9511,-2.9511,-2.9511,0,-2.8777,-2.8868,-2.8889,-2.8955,-2.8992,-2.8995,-2.9063,-2.91,-2.9174,-2.92,-2.9183,-2.9312,-2.9351,-2.945,-2.9474,-2.9502,-2.9521,-2.9495,-2.9603,-2.9612,-2.9622,-2.9655,-2.9668,-2.9513,-2.9513,-2.9513,-2.9512,0,-2.8901,-2.8965,-2.9013,-2.9084,-2.9127,-2.9193,-2.9224,-2.9265,-2.9273,-2.9298,-2.9383,-2.9429,-2.9496,-2.9521,-2.9529,-2.9621,-2.961,-2.9598,-2.9566,-2.9636,-2.9668,-2.9681,-2.9516,-2.9515,-2.9515,-2.9514,0,0,-2.8998,-2.9079,-2.9097,-2.9129,-2.9193,-2.9243,-2.931,-2.9375,-2.941,-2.9461,-2.9517,-2.9605,-2.9594,-2.9632,-2.9645,-2.9689,-2.9765,-2.9672,-2.9673,-2.9686,-2.9868,-2.9876,-2.989,-2.9764,-2.9766,-2.9768,-2.9863,0,-2.9088,-2.9207,-2.9227,-2.9331,-2.9389,-2.9393,-2.9451,-2.9497,-2.9523,-2.9577,-2.9605,-2.9666,-2.9647,-2.967,-2.9714,-2.9746,-2.9801,-2.974,-2.9816,-2.9818,-2.98,-2.9907,-2.9916,-3.0003,-2.9875,-2.9877,-2.9879,0,-2.921,-2.9264,-2.9373,-2.9429,-2.9454,-2.9506,-2.9568,-2.9619,-2.9671,-2.9687,-2.973,-2.9738,-2.9808,-2.9774,-2.987,-2.9827,-2.986,-2.988,-2.9884,-2.9891,-2.9852,-2.9916,-3.0031,-3.0044,-2.9899,-2.9897,-2.9896,0,-2.9268,-2.9368,-2.9446,-2.9474,-2.9541,-2.9578,-2.9608,-2.9658,-2.9696,-2.975,-2.9774,-2.9836,-2.9869,-2.9917,-2.9941,-2.9915,-3.0036,-3.0004,-3.005,-3.0049,-3.0074,-3.0072,-3.0195,-3.0097,-3.0097,-3.0097,-3.0097,0,-2.9366,-2.9433,-2.9473,-2.9521,-2.9596,-2.9619,-2.9692,-2.9721,-2.9766,-2.9819,-2.9827,-2.9877,-2.9907,-2.9961,-2.9981,-3.0057,-3.0073,-3.0087,-3.0091,-3.0086,-3.0084,-3.0107,-3.0101,-3.01,-3.01,-3.0099,-3.0098,0,-2.9443,-2.9473,-2.9558,-2.9615,-2.9631,-2.9684,-2.9733,-2.9779,-2.9805,-2.9873,-2.989,-2.9931,-2.9995,-3.0025,-3.0105,-3.0118,-3.0205,-3.0205,-3.0187,-3.0188,-3.0232,-3.0227,-3.0373,-3.0393,-3.0283,-3.0284,-3.0285,0,-2.9504,-2.9555,-2.9617,-2.9654,-2.9684,-2.9743,-2.9782,-2.9807,-2.9847,-2.991,-2.9949,-3.0014,-3.0067,-3.017,-3.0206,-3.0268,-3.0269,-3.0316,-3.0278,-3.0271,-3.0269,-3.0265,-3.027,-3.0323,-3.0324,-3.0325,-3.0325,0,-2.9608,-2.962,-2.9675,-2.9735,-2.9781,-2.983,-2.9878,-2.9908,-2.994,-2.9985,-3.0051,-3.0092,-3.0173,-3.0238,-3.0301,-3.0332,-3.0334,-3.0337,-3.0351,-3.0345,-3.0332,-3.0339,-3.0204,-3.0333,-3.0333,-3.0332,-3.0332,-3.0331,-2.9678,-2.9723,-2.9774,-2.9835,-2.9874,-2.9918,-2.9965,-2.9996,-3.0051,-3.0119,-3.0131,-3.0201,-3.0252,-3.0337,-3.0371,-3.0426,-3.0415,-3.0435,-3.044,-3.0444,-3.0446,-3.0324,-3.0438,-3.0438,-3.0437,-3.0437,-3.0437,0,-2.9781,-2.9814,-2.987,-2.9936,-2.9985,-2.9982,-3.0035,-3.0076,-3.0137,-3.0184,-3.0236,-3.0312,-3.0374,-3.0416,-3.0479,-3.0515,-3.0517,-3.053,-3.0528,-3.0534,-3.0453,-3.0434,-3.0527,-3.0527,-3.0527,-3.0527,-3.0527,-3.0527,-2.984,-2.9917,-2.9935,-3.003,-3.0063,-3.0131,-3.0162,-3.0203,-3.024,-3.0324,-3.0376,-3.0402,-3.0447,-3.0513,-3.057,-3.0581,-3.0603,-3.0617,-3.0627,-3.055,-3.054,-3.0531,-3.0514,-3.0622,-3.0622,-3.0703,-3.0704,-3.0705]},{"header":{"parameterUnit":"m.s-1","parameterCategory":1,"la1":30.2991,"la2":30.254,"lo1":-89.0895,"lo2":-89.0444,"dy":0.0017,"dx":0.0017,"nx":28,"ny":28,"refTime":"2025-04-30T03:00:00:Z","depth":0,"parameterNumber":3,"parameterNumberName":"V-component_of_WINDS"},"data":[0,0,0,0,0,0,0,0,0,0,0,0,0,0,0,0,0,0,0,0,0,0,0,0,0,0,0,0,0,0,0,0,0,0,0,0,0,0,0,0,0,0,0,0,0,0,0,0,0,0,0,0,0,0,0,0,0,0,4.4506,4.4506,0,4.4542,4.4543,4.4543,4.4481,4.4479,4.4477,4.4475,4.4509,4.4512,4.4515,0,0,0,0,0,0,0,0,0,0,0,0,0,4.4377,4.438,4.4505,4.4506,4.4506,4.4542,4.4543,4.4543,4.4482,4.4479,4.4476,4.4474,4.4508,4.4511,4.4515,0,0,0,0,0,0,0,0,0,0,0,0,0,4.4425,4.4381,4.4505,4.448,4.4478,4.4542,4.4543,4.4543,4.4482,4.4479,4.4476,4.4473,4.4507,4.4511,4.4515,4.4605,0,0,4.4528,4.453,0,0,0,0,0,0,0,0,4.4423,4.443,4.4483,4.4482,4.448,4.4504,4.451,4.4564,4.4483,4.4481,4.4475,4.4471,4.451,4.4514,4.4527,4.4606,4.4608,4.4529,4.4531,4.4533,4.4534,0,0,0,0,0,0,0,4.4419,4.4428,4.452,4.4484,4.4482,4.4465,4.4469,4.452,4.4512,4.448,4.4476,4.4481,4.4508,4.4523,4.4528,4.4608,4.4529,4.4532,4.4535,4.4537,4.476,4.4763,0,0,0,0,0,0,4.442,4.4426,4.4519,4.4521,4.4443,4.447,4.4474,4.4499,4.4511,4.451,4.4484,4.4478,4.4517,4.4523,4.4528,4.4632,4.4533,4.4537,4.454,4.4756,4.4761,4.4764,0,0,0,0,0,0,4.4417,4.4429,4.4517,4.4472,4.4482,4.4476,4.4505,4.4502,4.4517,4.4514,4.4512,4.4501,4.4515,4.4522,4.4586,4.4632,4.4539,4.4543,4.4753,4.4758,4.4762,4.4841,0,0,0,0,0,0,4.4414,4.4428,4.4463,4.4474,4.4485,4.4576,4.4508,4.4505,4.4525,4.4518,4.453,4.4529,4.4513,4.458,4.459,4.4636,4.4546,4.4748,4.4755,4.4761,4.4834,4.4848,4.486,0,0,0,0,0,4.441,4.4484,4.4465,4.4477,4.4529,4.4578,4.4585,4.4567,4.4529,4.4563,4.4561,4.4528,4.4626,4.4587,4.4598,4.4646,4.4745,4.4753,4.476,4.4828,4.4845,4.486,0,0,0,0,0,0,4.4478,4.4484,4.4464,4.4544,4.4561,4.4568,4.461,4.4585,4.4613,4.4605,4.458,4.4583,4.4651,4.4655,4.4611,4.4732,4.4679,4.4689,4.4727,4.4743,4.4756,4.4752,4.455,0,0,0,0,0,4.4502,4.4544,4.4547,4.4617,4.4626,4.4617,4.4638,4.4623,4.4639,4.4646,4.4648,4.4664,4.4698,4.4721,4.4752,4.4835,4.4835,4.4873,4.4886,4.4897,4.4905,4.4947,4.4964,4.4789,4.4789,4.4789,0,0,4.4553,4.4562,4.4589,4.463,4.4642,4.4683,4.4624,4.467,4.47,4.4652,4.4712,4.4715,4.4731,4.4804,4.4836,4.4809,4.4954,4.4907,4.4915,4.4918,4.4957,4.4973,4.4988,4.4794,4.4793,4.4792,0,0,4.4666,4.4678,4.4736,4.4749,4.4768,4.4761,4.4775,4.4786,4.4786,4.4846,4.481,4.4845,4.4905,4.4917,4.4931,4.5048,4.5018,4.5059,4.5126,4.5167,4.518,4.5192,4.5232,4.5247,4.5068,4.5068,4.5068,0,4.4726,4.4788,4.4769,4.4818,4.4837,4.4796,4.4854,4.4867,4.4895,4.4908,4.4878,4.4951,4.4959,4.5033,4.5062,4.5075,4.5089,4.5057,4.518,4.5192,4.5203,4.5241,4.5256,4.5073,4.5072,4.5072,4.5071,0,4.486,4.4904,4.4949,4.4977,4.5001,4.5054,4.5042,4.5067,4.505,4.5046,4.5106,4.5115,4.5146,4.5163,4.5146,4.5235,4.5217,4.5185,4.513,4.5225,4.5259,4.5274,4.5079,4.5078,4.5076,4.5075,0,0,4.5016,4.5033,4.505,4.5061,4.5079,4.5111,4.5162,4.5194,4.5216,4.5236,4.5276,4.5328,4.5297,4.5313,4.5297,4.5334,4.5423,4.5296,4.5296,4.5318,4.5519,4.5542,4.5559,4.5405,4.5407,4.5409,4.5517,0,4.5127,4.5216,4.52,4.5285,4.5324,4.5286,4.533,4.5345,4.5342,4.5374,4.537,4.5406,4.5364,4.5374,4.5408,4.5405,4.5463,4.5398,4.544,4.5442,4.5435,4.5578,4.5603,4.5704,4.5531,4.5533,4.5535,0,4.5268,4.5294,4.5384,4.5394,4.5409,4.5449,4.5476,4.5508,4.5522,4.5518,4.5536,4.5513,4.5562,4.5508,4.5574,4.553,4.5546,4.5547,4.5551,4.5552,4.5493,4.5582,4.5736,4.5751,4.5556,4.5554,4.5553,0,4.5371,4.5428,4.5489,4.55,4.5514,4.5542,4.5549,4.5561,4.558,4.5604,4.5616,4.5645,4.566,4.5682,4.5666,4.5629,4.5734,4.568,4.573,4.573,4.5752,4.575,4.5909,4.5766,4.5766,4.5766,4.5765,0,4.5495,4.5551,4.5535,4.5572,4.5633,4.5613,4.5673,4.5675,4.5686,4.5722,4.5691,4.5724,4.5703,4.5735,4.5723,4.5778,4.5786,4.5782,4.5778,4.5784,4.5784,4.5793,4.5785,4.577,4.5769,4.5768,4.5767,0,4.5619,4.5611,4.5674,4.5682,4.5685,4.5729,4.5735,4.5768,4.5764,4.5809,4.5818,4.5811,4.5846,4.5834,4.5872,4.5864,4.5933,4.5921,4.5928,4.5924,4.5975,4.5969,4.6143,4.6164,4.6009,4.6011,4.6012,0,4.5698,4.574,4.5752,4.5774,4.5784,4.582,4.584,4.5822,4.5843,4.5863,4.5894,4.5927,4.5952,4.6011,4.6007,4.6036,4.6023,4.6082,4.6027,4.6031,4.6021,4.6018,4.6021,4.6092,4.6094,4.6095,4.6097,0,4.5839,4.5832,4.5863,4.5892,4.5917,4.5939,4.5958,4.5977,4.596,4.5986,4.6022,4.6042,4.6081,4.6113,4.6138,4.6143,4.6117,4.6114,4.6127,4.6132,4.6134,4.6132,4.5956,4.611,4.6108,4.6107,4.6107,4.6106,4.5941,4.5976,4.599,4.6025,4.6037,4.6055,4.6087,4.6086,4.6117,4.6147,4.6135,4.6176,4.6188,4.622,4.6228,4.626,4.6236,4.6255,4.626,4.6264,4.627,4.6131,4.6264,4.6264,4.6264,4.6263,4.6263,0,4.6078,4.6085,4.6118,4.6145,4.6172,4.6146,4.6165,4.6189,4.6226,4.624,4.6266,4.6307,4.6338,4.6337,4.6366,4.6391,4.6379,4.6399,4.6396,4.6397,4.629,4.6275,4.6407,4.6407,4.6407,4.6407,4.6407,4.6407,4.6153,4.621,4.6205,4.6268,4.6274,4.6315,4.6328,4.6343,4.6355,4.6402,4.6428,4.6428,4.6436,4.6464,4.6491,4.649,4.6501,4.6525,4.6519,4.6419,4.6405,4.6391,4.6377,4.6528,4.6528,4.6623,4.6624,4.6625]}]]